Content
SEND FEEDBACK

Daily
Averages
Monthly
Summary
United States of America

NACHES, WASHINGTON


Home > North America > United States > Washington
Elevation: 273 feet     Latitude: 46 39N     Longitude: 121 08W

WEATHER
 
SELECT A DAY
Number of Records: 183,265;   Date Range: 1/1/95 - 7/22/14
 
SHARE

PRINT THIS DATA

[ ← Previous Day ]
WEATHER ALMANAC - JANUARY 31, 2013
[ Next Day → ]
[ °C ]   °F
Weather ElementAverageHighLow
Temperature42 °F53.1 °F (12:53 pm)28.9 °F (10:53 pm)
Dewpoint32.5 °F36 °F (10:53 am)25 °F (10:53 pm)
Humidity70.3 %89 % (9:53 pm)50 % (12:53 pm)
Barometer30.28 in30.33 in (8:53 am)30.25 in (2:53 pm)
Wind Speed2.3 mph8.1 mph (5:53 pm)
Weather ElementAverage
Visibility9.9 mi
Wind DirectionSE (131.7 °)

Weather ElementTotal
Precipitation---
Heating Degree Days24 (Base 65)
Averaged from 23 records on January 31, 2013
WEATHER CONDITIONS BREAKOUT
WIND DIRECTION BREAKOUT
WEATHER BY HOUR - JANUARY 31, 2013
[ °C ]   °F
Local TimeTemperatureDewpointHumidityBarometerVisibilityWind DirectionWind SpeedGust SpeedPrecipitationEventsConditions
1:53 AM45.0 °F35.1 °F68 %30.28 in10.0 miSE (140°)3.5 mphClear
2:53 AM46.9 °F35.1 °F63 %30.27 in10.0 miCalmClear
3:53 AM43.0 °F34.0 °F71 %30.29 in10.0 miCalmClear
4:53 AM42.1 °F33.1 °F70 %30.29 in10.0 miCalmClear
5:53 AM39.9 °F32.0 °F73 %30.30 in10.0 miCalmClear
6:53 AM37.9 °F32.0 °F79 %30.31 in10.0 miCalmClear
7:53 AM39.0 °F32.0 °F76 %30.32 in10.0 miWNW (290°)3.5 mphScattered Clouds
8:53 AM37.9 °F32.0 °F79 %30.33 in10.0 miCalmScattered Clouds
9:53 AM42.1 °F34.0 °F73 %30.32 in10.0 miCalmClear
10:53 AM46.9 °F36.0 °F66 %30.30 in10.0 miCalmClear
11:53 AM51.1 °F36.0 °F56 %30.29 in10.0 miNW (320°)4.6 mphClear
12:53 PM53.1 °F35.1 °F50 %30.26 in10.0 miWSW (250°)3.5 mphMostly Cloudy
1:53 PM53.1 °F35.1 °F50 %30.27 in10.0 miCalmMostly Cloudy
2:53 PM53.1 °F35.1 °F50 %30.25 in10.0 miCalmMostly Cloudy
3:53 PM51.1 °F36.0 °F56 %30.25 in10.0 miCalmMostly Cloudy
4:53 PM45.0 °F34.0 °F65 %30.25 in10.0 miCalmMostly Cloudy
5:53 PM37.0 °F30.0 °F76 %30.25 in10.0 miWNW (290°)8.1 mphMostly Cloudy
6:53 PM41.0 °F33.1 °F73 %30.26 in10.0 miWest (280°)3.5 mphClear
7:53 PM35.1 °F30.0 °F82 %30.27 in10.0 miNW (310°)5.8 mphScattered Clouds
8:53 PM33.1 °F28.9 °F85 %30.28 in10.0 miNW (310°)5.8 mphPartly Cloudy
9:53 PM30.9 °F28.0 °F89 %30.28 in9.0 miWNW (300°)5.8 mphClear
10:53 PM28.9 °F25.0 °F85 %30.28 in9.0 miWSW (240°)3.5 mphClear
11:53 PM32.0 °F27.0 °F82 %30.29 in10.0 miWNW (300°)4.6 mphClear
Hourly data recorded from KYKM, located miles away from Naches, Washington







STORIES FROM OUR PARTNERS